2026-023D

Last updated on Sun Mar 08 2026 00:02:12 GMT+0000 (Coordinated Universal Time)

1 67677U 26023D 26066.61904777 .00016448 00000+0 69998-3 0 9993 2 67677 96.6420 139.8183 0020619 134.4017 225.8914 15.22858250 4534
UTC large
Height (km)
Speed (km/s)
/
Latitude / Longitude
Inclination (degrees)
Orbital Period (minutes)
Azimuth
Elevation
Range (km)
Doppler Factor

Next 0 passes for location: London (51.5072 / 0.1276)

Sorry there are no passes over London.